This is the latest recevied weather packets stored in our database for station/object W2GRK-15. If no packets are shown the sender has not sent any weather packets the latest 10 day(s).
| Time | Temp. | Humidity | Pressure | Rain* | Wind** | Luminosity | Snow |
|---|---|---|---|---|---|---|---|
| 1777384645 | 16.11° C | 50% | 1022.5 hPa | 0 mm | - | 535 W/m² | - |
| 1777384580 | 16.11° C | 48% | 1022.6 hPa | 0 mm | - | 547 W/m² | - |
| 1777383984 | 16.11° C | 47% | 1022.7 hPa | 0 mm | - | 386 W/m² | - |
| 1777383807 | 15.56° C | 48% | 1022.3 hPa | 0 mm | - | 388 W/m² | - |
| 1777383389 | 15.56° C | 47% | 1022.5 hPa | 0 mm | - | 490 W/m² | - |
| 1777383196 | 16.11° C | 48% | 1022.6 hPa | 0 mm | - | 502 W/m² | - |
| 1777383167 | 16.11° C | 49% | 1022.5 hPa | 0 mm | - | 462 W/m² | - |
| 1777382378 | 15° C | 51% | 1022.7 hPa | 0 mm | - | 421 W/m² | - |
| 1777382116 | 15.56° C | 50% | 1022.6 hPa | 0 mm | - | 411 W/m² | - |
| 1777381343 | 15° C | 53% | 1022.5 hPa | 0 mm | - | 404 W/m² | - |
| 1777380925 | 14.44° C | 55% | 1022.7 hPa | 0 mm | - | 375 W/m² | - |
| 1777380747 | 14.44° C | 53% | 1022.7 hPa | 0 mm | - | 364 W/m² | - |
| 1777379781 | 13.33° C | 59% | 1022.7 hPa | 0 mm | - | 277 W/m² | - |
| 1777379540 | 13.89° C | 60% | 1022.5 hPa | 0 mm | - | 254 W/m² | - |
| 1777379427 | 13.89° C | 60% | 1022.7 hPa | 0 mm | - | 238 W/m² | - |
| 1777379185 | 13.89° C | 59% | 1022.4 hPa | 0 mm | - | 192 W/m² | - |
| 1777379008 | 13.89° C | 59% | 1022.7 hPa | 0 mm | - | 140 W/m² | - |
| 1777378018 | 12.78° C | 64% | 1022.9 hPa | 0 mm | - | 208 W/m² | - |
| 1777377446 | 11.11° C | 70% | 1023 hPa | 0 mm | - | 120 W/m² | - |
| 1777377205 | 11.11° C | 71% | 1023 hPa | 0 mm | - | 110 W/m² | - |
| 1777377076 | 11.11° C | 71% | 1022.8 hPa | 0 mm | - | 103 W/m² | - |
| 1777376963 | 11.11° C | 73% | 1022.9 hPa | 0 mm | - | 97 W/m² | - |
| 1777376899 | 11.11° C | 74% | 1022.7 hPa | 0 mm | - | 95 W/m² | - |
| 1777376609 | 11.11° C | 73% | 1022.8 hPa | 0 mm | - | 83 W/m² | - |
| 1777375465 | 8.89° C | 83% | 1022.9 hPa | 0 mm | - | 64 W/m² | - |
* Rain latest hour (hover to see other rain measurements)
** Current wind speed in m/s (hover to see current wind gust speed)